294  
ASUS41 KOKX 062314  
RWROKX  
 
REGIONAL WEATHER ROUNDUP  
NATIONAL WEATHER SERVICE NEW YORK NY  
700 PM EDT MON APR 06 2020  
 
NOTE: "FAIR" INDICATES FEW OR NO CLOUDS BELOW 12,000 FEET WITH NO  
SIGNIFICANT WEATHER AND/OR S TO VISIBILITY
.  
 
NYZ071-072-176-178-NJZ106-104-070000-  
NEW YORK CITY METRO AREA  
 
CITY SKY/WX TMP DP RH WIND PRES REMARKS
 
CENTRAL PARK FAIR 64 18 17 VRB5 29.96R  
BRONX LEHMAN C N/A 63 21 20 NW10 N/A  
LAGUARDIA ARPT FAIR 62 25 24 NW16 29.93R  
QUEENS COLLEGE N/A 55 37 50 S14 N/A  
KENNEDY INTL FAIR 52 42 69 S16 29.95R  
BREEZY POINT N/A 50 N/A N/A S14G21 N/A  
BROOKLYN COLL N/A 55 37 50 S9 N/A  
STATEN ISLAND N/A 64 23 20 NW8 N/A  
NEWARK/LIBERTY FAIR 64 17 16 NW12 29.93S  
TETERBORO FAIR 62 23 22 NW12 29.92R  

 
 
NYZ177-179-078>081-070000-  
LONG ISLAND NEW YORK  
 
CITY SKY/WX TMP DP RH WIND PRES REMARKS
 
JONES BEACH N/A 50 N/A N/A S7 N/A  
WANTAGH N/A 52 41 66 S8 N/A  
HEMPSTEAD NOT AVBL  
MATINECOCK PT N/A 63 N/A N/A W10 N/A  
FARMINGDALE FAIR 55 36 48 SW13 29.94R  
MACARTHUR/ISP FAIR 53 38 56 SW9 29.93S  
STONY BROOK N/A 61 30 31 W3 N/A  
SHIRLEY FAIR 53 39 59 S9 29.94S  
MT SINAI HARB N/A N/A N/A N/A W2 N/A  
WESTHAMPTON FAIR 49 38 65 SW6 29.95F  
EAST HAMPTON FAIR 48 39 70 SW10 29.93S  
SOUTHOLD N/A 52 39 62 SW8 N/A  
MONTAUK N/A 51 38 60 SW9 29.93S  

 
 
NYZ052-065-067-070000-  
HUDSON VALLEY  
 
CITY SKY/WX TMP DP RH WIND PRES REMARKS
 
WHITE PLAINS FAIR 60 19 20 NW10 29.92S  
LARCHMONT HARB N/A 63 N/A N/A W13 N/A  
CROTON ON HUDS N/A 59 N/A N/A NW12 N/A  
SOMERS N/A 59 19 21 NW6 N/A  
BREWSTER N/A 59 27 29 NW7 N/A  
NEWBURGH CLEAR 61 21 21 NW14G25 29.94R  
MONTGOMERY FAIR 59 20 22 NW10 29.93R  
OTISVILLE N/A 57 19 23 NW8 N/A  
WARWICK N/A 59 21 23 NW10 N/A  
SUFFERN N/A 59 23 25 NW8 N/A  
POUGHKEEPSIE FAIR 61 17 18 NW10 29.92R  
ALBANY FAIR 57 16 20 W18G25 29.94S  

 
 
NJZ001-105-106-008-010-013-015-019>022-104-070000-  
NEW JERSEY  
 
CITY SKY/WX TMP DP RH WIND PRES REMARKS
 
NEWARK/LIBERTY FAIR 64 17 16 NW12 29.93S  
TETERBORO FAIR 62 23 22 NW12 29.92R  
CALDWELL FAIR 65 20 17 NW7 29.94S  
SOMERVILLE FAIR 64 22 20 MISG 29.94R  
LINDEN FAIR 65 20 18 N9G16 29.94R  
PERTH AMBOY N/A 64 N/A N/A NW9 N/A  
SUSSEX FAIR 61 18 18 NW7G20 29.97R  
ANDOVER N/A 60 20 21 VRB5 29.96R  
TRENTON FAIR 63 19 18 NW7 29.95S  
MILLVILLE FAIR 61 33 35 SE9 29.98R  
ATLANTIC CITY FAIR 54 39 57 S7 29.99S  
WRIGHTSTOWN FAIR 62 25 24 NW9 29.95F  
TOMS RIVER FAIR 54 37 52 S10 29.97F  
BELMAR FAIR 54 34 46 S9 29.97S  

 
 
PAZ047>061-062-071-070000-  
EASTERN PENNSYLVANIA  
 
CITY SKY/WX TMP DP RH WIND PRES REMARKS
 
PHILADELPHIA FAIR 64 21 19 NW13 29.97S  
ALLENTOWN FAIR 63 24 22 N10 29.97R  
SCRANTON FAIR 58 20 22 NW9 29.98F  

 
 
CTZ002-004>006-009-010-012-RIZ004-006-007-MAZ004-011-015-070000-  
SOUTHERN NEW ENGLAND  
 
IN CT  
 
CITY SKY/WX TMP DP RH WIND PRES REMARKS
 
BRADLEY INTL FAIR 58 11 15 NW9 29.91S  
HARTFORD FAIR 61 16 17 NW8 29.91S  
DANBURY FAIR 59 24 26 NW8 29.93S  
WTRBURY/OXFORD FAIR 58 23 26 NW5 29.92S  
NORWALK HARBOR N/A 55 N/A N/A SW8 N/A  
BRIDGEPORT FAIR 58 34 40 SW3 29.91S  
MERIDEN FAIR 60 20 21 NW7 29.91S  
NEW HAVEN FAIR 62 26 25 NW8 29.91S  
CHESTER FAIR 61 10 13 NW7G14 29.91S  
GROTON FAIR 52 33 48 SW8 29.90S  
WILLIMANTIC FAIR 59 15 18 NW10 29.91R  
 
IN RI  
 
CITY SKY/WX TMP DP RH WIND PRES REMARKS
 
PROVIDENCE FAIR 51 39 63 S12 29.89S  
BLOCK ISLAND FAIR 45 41 86 S15 29.92F  
WESTERLY FAIR 55 33 43 SW10 29.91S  
 
IN MA  
 
CITY SKY/WX TMP DP RH WIND PRES REMARKS
 
BOSTON FAIR 58 14 17 NW12 29.87S  
WORCESTER FAIR 54 15 21 NW13 29.89R  
WESTFIELD FAIR 58 12 16 NW13 29.91S  
PROVINCETOWN FAIR 47 37 68 S12G20 29.90S  
NANTUCKET FAIR 43 37 79 S8 29.93S  

 
 
ANZ330-335-338-340-345-350-353-355-070000-  
COASTAL MARINE OBSERVATIONS  
 
 
STATION/POSITION TIME SKY/WX TEMP WIND PRES VSBY WAVE
 
AIR SEA DIR/SP/G HT/PER  
(UTC) (F) (DEG/KT/KT) (MB) (MI) (FT/S)  
NY HARB ENTRANCE 2250 49 190/ 14/ 16 1014.0 4/12  
20 S FIRE ISLAND 2250 49 47 1014.2 4/12  
GREAT SOUTH BAY NOT AVBL  
23 SSW MONTAUK P NOT AVBL  
15 E BARNEGAT LI 2300 47 N/A 4/13  
HUDSON CANYON 2250 44 1015.4 5/12  
KINGS POINT 2230 61 58 360/ 12/ 14 1014.0  
EXECUTION ROCKS 2245 62 32 290/ 8/ 12 N/A  
WESTERN LI SOUND 2245 58 240/ 6/ 10 N/A 0  
CENTRAL LI SOUND NOT AVBL  
ROBBINS REEF 2230 56 190/ 10/ 13 1013.6  

 
 
>>>>>>>>>>>>>>>>>>>>>>>>>>>> KEY <<<<<<<<<<<<<<<<<<<<<<<<<<<  
> <  
> SKY/WX - SKY CONDITION/PRESENT WEATHER <  
> TMP - TEMPERATURE IN FAHRENHEIT <  
> DP - DEW POINT IN FAHRENHEIT <  
> RH - RELATIVE HUMIDITY IN PERCENT <  
> WIND - DIRECTION (FROM) AND SPEED IN MPH <  
> PRES - MEAN SEA LEVEL PRESSURE (INCHES OF HG) <  
> WCI - WIND CHILL INDEX <  
> VSB - VISIBILITY IN MILES <  
> HX - HEAT INDEX <  
> TC - TEMPERATURE IN CELSIUS <  
> VRB - VARIABLE WIND DIRECTION <  
> <  
>>>>>>>>>>>>>>>>>>>>>>>>>>>> KEY <<<<<<<<<<<<<<<<<<<<<<<<<<<  
 
 
CLICK HERE TO GO TO PREVIOUS BULLETINS.

The Nexlab NY Page
The Nexlab NJ Page
The Nexlab CT Page Main Text Page